TimeCDT,TemperatureF,Dew PointF,Humidity,Sea Level PressureIn,VisibilityMPH,Wind Direction,Wind SpeedMPH,Gust SpeedMPH,PrecipitationIn,Events,Conditions,WindDirDegrees,DateUTC
12:15 AM,82.4,66.7,59,29.95,10.0,SSW,13.8,19.6,N/A,,Clear,200,2013-07-19 05:15:00
12:35 AM,81.9,66.7,60,29.94,10.0,South,12.7,17.3,N/A,,Clear,190,2013-07-19 05:35:00
12:55 AM,81.3,66.7,61,29.94,10.0,SSW,10.4,18.4,N/A,,Clear,200,2013-07-19 05:55:00
1:15 AM,81.1,66.6,61,29.94,10.0,SSW,12.7,16.1,N/A,,Clear,200,2013-07-19 06:15:00
1:35 AM,80.8,66.6,62,29.94,10.0,SSW,11.5,18.4,N/A,,Clear,200,2013-07-19 06:35:00
1:55 AM,80.8,66.4,61,29.93,10.0,SSW,12.7,20.7,N/A,,Clear,200,2013-07-19 06:55:00
2:15 AM,80.6,66.2,61,29.93,10.0,SSW,11.5,-,N/A,,Clear,210,2013-07-19 07:15:00
2:35 AM,80.2,66.2,62,29.93,10.0,SSW,10.4,-,N/A,,Clear,210,2013-07-19 07:35:00
2:55 AM,80.1,66.2,62,29.92,10.0,SSW,10.4,16.1,N/A,,Clear,210,2013-07-19 07:55:00
3:15 AM,79.7,66.2,63,29.92,10.0,SSW,10.4,-,N/A,,Clear,210,2013-07-19 08:15:00
3:35 AM,79.3,66.2,64,29.92,10.0,SSW,8.1,-,N/A,,Clear,210,2013-07-19 08:35:00
3:55 AM,79.2,66.2,64,29.91,10.0,SW,9.2,-,N/A,,Clear,220,2013-07-19 08:55:00
4:15 AM,79.2,66.2,64,29.91,10.0,SW,8.1,-,N/A,,Clear,230,2013-07-19 09:15:00
4:35 AM,79.0,66.2,65,29.91,10.0,SW,8.1,-,N/A,,Clear,220,2013-07-19 09:35:00
4:55 AM,79.2,66.2,64,29.91,10.0,SW,9.2,-,N/A,,Clear,220,2013-07-19 09:55:00
5:15 AM,78.8,66.2,65,29.91,10.0,SW,8.1,-,N/A,,Clear,230,2013-07-19 10:15:00
5:35 AM,78.8,66.2,65,29.91,10.0,SW,6.9,-,N/A,,Clear,220,2013-07-19 10:35:00
5:55 AM,78.8,66.0,65,29.91,10.0,SW,8.1,-,N/A,,Clear,230,2013-07-19 10:55:00
6:15 AM,78.1,66.2,67,29.91,10.0,SW,5.8,-,N/A,,Clear,220,2013-07-19 11:15:00
6:35 AM,78.1,66.2,67,29.91,10.0,SW,4.6,-,N/A,Thunderstorm,Clear,220,2013-07-19 11:35:00
6:55 AM,77.9,66.2,67,29.91,10.0,SSW,6.9,-,N/A,Thunderstorm,Clear,200,2013-07-19 11:55:00
7:15 AM,78.1,66.7,68,29.92,10.0,SW,4.6,-,N/A,Thunderstorm,Clear,220,2013-07-19 12:15:00
7:35 AM,77.9,66.7,68,29.93,10.0,WSW,6.9,-,N/A,,Mostly Cloudy,250,2013-07-19 12:35:00
7:55 AM,77.9,67.1,69,29.93,10.0,SW,4.6,-,N/A,,Mostly Cloudy,230,2013-07-19 12:55:00
8:15 AM,77.7,67.1,70,29.95,10.0,Calm,Calm,-,N/A,,Scattered Clouds,0,2013-07-19 13:15:00
8:35 AM,76.3,68.2,76,29.95,10.0,Calm,Calm,-,N/A,Thunderstorm,Thunderstorm,0,2013-07-19 13:35:00
8:55 AM,77.5,68.4,73,29.96,10.0,Calm,Calm,-,N/A,,Clear,0,2013-07-19 13:55:00
9:15 AM,78.6,68.2,70,29.95,10.0,SW,3.5,-,N/A,,Clear,220,2013-07-19 14:15:00
9:35 AM,80.6,68.7,67,29.94,10.0,SW,4.6,-,N/A,,Clear,220,2013-07-19 14:35:00
9:55 AM,82.4,68.9,64,29.94,10.0,SSW,5.8,-,N/A,,Clear,210,2013-07-19 14:55:00
10:15 AM,84.4,68.9,60,29.94,10.0,WSW,6.9,-,N/A,,Clear,250,2013-07-19 15:15:00
10:35 AM,83.8,68.7,60,29.95,10.0,West,6.9,-,N/A,,Scattered Clouds,270,2013-07-19 15:35:00
10:55 AM,84.7,69.4,60,29.96,10.0,West,5.8,-,N/A,,Scattered Clouds,270,2013-07-19 15:55:00
11:15 AM,85.8,70.5,60,29.96,10.0,West,8.1,-,N/A,,Scattered Clouds,280,2013-07-19 16:15:00
11:35 AM,85.3,70.3,61,29.96,10.0,WSW,3.5,-,N/A,,Scattered Clouds,250,2013-07-19 16:35:00
11:55 AM,87.3,69.6,56,29.96,10.0,NW,3.5,-,N/A,,Scattered Clouds,310,2013-07-19 16:55:00
12:15 PM,89.6,68.7,50,29.96,10.0,NE,5.8,-,N/A,,Scattered Clouds,50,2013-07-19 17:15:00
12:35 PM,89.4,65.8,46,29.96,10.0,NE,5.8,-,N/A,,Mostly Cloudy,40,2013-07-19 17:35:00
12:55 PM,88.9,66.9,48,29.95,10.0,NE,4.6,-,N/A,,Mostly Cloudy,40,2013-07-19 17:55:00
1:15 PM,88.7,65.8,47,29.94,10.0,ENE,4.6,-,N/A,,Mostly Cloudy,70,2013-07-19 18:15:00
1:35 PM,89.6,65.5,45,29.94,10.0,NNE,3.5,-,N/A,,Mostly Cloudy,30,2013-07-19 18:35:00
1:55 PM,90.5,64.9,43,29.94,10.0,ESE,4.6,-,N/A,,Scattered Clouds,120,2013-07-19 18:55:00
2:15 PM,89.6,68.9,50,29.94,10.0,SSW,3.5,-,N/A,,Scattered Clouds,210,2013-07-19 19:15:00
2:35 PM,91.4,67.3,45,29.94,10.0,Calm,Calm,-,N/A,,Clear,0,2013-07-19 19:35:00
2:55 PM,90.7,69.3,49,29.94,10.0,Calm,Calm,-,N/A,,Clear,0,2013-07-19 19:55:00
3:15 PM,93.4,64.0,38,29.94,10.0,North,4.6,-,N/A,,Clear,10,2013-07-19 20:15:00
3:35 PM,93.0,64.8,39,29.94,10.0,NNE,4.6,-,N/A,,Clear,30,2013-07-19 20:35:00
3:55 PM,93.0,66.6,42,29.94,10.0,NNW,6.9,-,N/A,,Clear,330,2013-07-19 20:55:00
4:15 PM,93.0,64.4,39,29.93,10.0,NW,8.1,-,N/A,,Clear,320,2013-07-19 21:15:00
4:35 PM,93.6,61.0,34,29.93,10.0,North,3.5,17.3,N/A,,Clear,360,2013-07-19 21:35:00
4:55 PM,93.7,63.1,36,29.93,10.0,NNW,8.1,-,N/A,,Scattered Clouds,330,2013-07-19 21:55:00
5:15 PM,93.2,63.0,36,29.92,10.0,NNW,8.1,-,N/A,,Scattered Clouds,330,2013-07-19 22:15:00
5:35 PM,93.0,63.1,37,29.92,10.0,Calm,Calm,-,N/A,,Clear,0,2013-07-19 22:35:00
5:55 PM,92.3,64.0,39,29.92,10.0,NNW,6.9,-,N/A,,Clear,330,2013-07-19 22:55:00
6:15 PM,92.3,61.2,35,29.92,10.0,NNW,9.2,-,N/A,,Clear,340,2013-07-19 23:15:00
6:35 PM,90.9,64.0,41,29.91,10.0,NNW,6.9,-,N/A,,Clear,330,2013-07-19 23:35:00
6:55 PM,89.6,64.8,44,29.91,10.0,NNW,9.2,-,N/A,,Clear,330,2013-07-19 23:55:00
7:15 PM,88.2,62.2,42,29.91,10.0,NNW,6.9,-,N/A,,Clear,340,2013-07-20 00:15:00
7:35 PM,86.9,64.0,46,29.91,10.0,NNW,5.8,-,N/A,,Clear,330,2013-07-20 00:35:00
7:55 PM,85.8,64.2,48,29.91,10.0,NNW,4.6,-,N/A,,Clear,330,2013-07-20 00:55:00
8:15 PM,84.2,65.7,54,29.92,10.0,Calm,Calm,-,N/A,,Clear,0,2013-07-20 01:15:00
8:35 PM,82.8,66.6,58,29.92,10.0,Calm,Calm,-,N/A,,Clear,0,2013-07-20 01:35:00
8:55 PM,80.2,67.3,64,29.92,5.0,Calm,Calm,-,N/A,,Haze,0,2013-07-20 01:55:00
9:15 PM,79.7,66.4,64,29.93,10.0,Calm,Calm,-,N/A,,Clear,0,2013-07-20 02:15:00
9:35 PM,78.3,65.3,64,29.93,10.0,Calm,Calm,-,N/A,,Clear,0,2013-07-20 02:35:00
9:55 PM,75.4,65.7,72,29.93,10.0,Calm,Calm,-,N/A,,Clear,0,2013-07-20 02:55:00
10:15 PM,76.8,64.9,67,29.94,10.0,Calm,Calm,-,N/A,,Clear,0,2013-07-20 03:15:00
10:35 PM,76.3,64.6,67,29.94,10.0,Calm,Calm,-,N/A,,Clear,0,2013-07-20 03:35:00
10:55 PM,73.8,65.7,76,29.95,10.0,Calm,Calm,-,N/A,,Clear,0,2013-07-20 03:55:00
11:15 PM,73.6,65.7,76,29.96,10.0,Calm,Calm,-,N/A,,Clear,0,2013-07-20 04:15:00
11:35 PM,73.4,66.0,78,29.95,10.0,Calm,Calm,-,N/A,,Clear,0,2013-07-20 04:35:00
11:55 PM,73.6,65.7,76,29.96,10.0,Calm,Calm,-,N/A,,Clear,0,2013-07-20 04:55:00